{"data":{"norad_id":55912,"epoch":"2026-05-25T06:05:23.796960Z","epoch_age_seconds":50194,"freshness":"FRESH","line1":"1 55912U 23036A   26145.25374765 -.00000223  00000+0  00000+0 0  9999","line2":"2 55912   1.0185 358.3040 0004307 339.1099 144.9852  1.00269287 11864","mean_motion":1.00269287,"eccentricity":0.0004307,"inclination_deg":1.0185,"raan_deg":358.304,"arg_perigee_deg":339.1099,"mean_anomaly_deg":144.9852,"bstar":0,"rev_number":1186,"period_min":1436.1326813863,"perigee_km":35769.134604136,"apogee_km":35805.455907482,"semimajor_km":42165.432255809,"source":"CELESTRAK","updated_at":"2026-05-25T13:38:14.139419Z"}}